Torna al catalogo

CZ-6A DEB

AttivoSSO
NORAD 54628·DEBRIS·🇨🇳 China

Lanciato Nov 11, 2022 da Taiyuan Satellite Launch Center

Loading…

Prossimi Passaggi (prossime 24 ore)

TLE

AggiornatoSource: Space-Track

Epoca: Sep 14, 2026, 13:06 UTC

1 54628U 22151PE  26257.54615419  .00000313  00000-0  29688-3 0  9996
2 54628  98.9503 198.2969 0182913 280.2510  77.8065 13.81061112192275

Traccia CZ-6A DEB in tempo reale con AllMySat

Download on the App Store